Content
SEND FEEDBACK

Daily
Averages
Monthly
Summary
United States of America

MUSKEGON, MICHIGAN


Home > North America > United States > Michigan
Elevation: 628 feet     Latitude: 43 10N     Longitude: 086 14W

WEATHER
 
SELECT A DAY
Number of Records: 223,296;   Date Range: 1/1/95 - 10/21/14
 
SHARE

PRINT THIS DATA

[ ← Previous Day ]
WEATHER ALMANAC - JANUARY 24, 2013
[ Next Day → ]
[ °C ]   °F
Weather ElementAverageHighLow
Temperature12.2 °F16 °F (2:55 pm)6.1 °F (7:55 am)
Dewpoint4.2 °F9 °F (2:55 am) (7:00 pm)
Humidity71.3 %88 % (2:55 am)52 % (2:55 pm)
Barometer30.47 in30.66 in (10:55 am)30.24 in (1:16 am)
Wind Speed5.3 mph9.2 mph (10:55 pm)
Weather ElementAverage
Visibility8.4 mi
Wind DirectionSSE (159.4 °)

Weather ElementTotal
Precipitation0.03 in
Heating Degree Days54 (Base 65)
Averaged from 31 records on January 24, 2013
WEATHER CONDITIONS BREAKOUT
WIND DIRECTION BREAKOUT
WEATHER BY HOUR - JANUARY 24, 2013
[ °C ]   °F
Local TimeTemperatureDewpointHumidityBarometerVisibilityWind DirectionWind SpeedGust SpeedPrecipitationEventsConditions
1:16 AM12.2 °F6.8 °F79 %30.24 in7.0 miNW (320°)5.8 mphMostly Cloudy
1:44 AM12.2 °F6.8 °F79 %30.25 in7.0 miNW (320°)6.9 mph0.00 inScattered Clouds
1:55 AM12.0 °F8.1 °F84 %30.30 in10.0 miNW (310°)4.6 mph0.00 inScattered Clouds
2:03 AM12.2 °F8.6 °F85 %30.26 in4.0 miWNW (300°)4.6 mph0.00 inSnowLight Snow
2:12 AM12.2 °F8.6 °F85 %30.27 in2.0 miNW (320°)4.6 mph0.00 inSnowLight Snow
2:23 AM12.2 °F8.6 °F85 %30.28 in0.8 miNW (320°)3.5 mph0.00 inSnowLight Snow
2:41 AM14.0 °F8.6 °F79 %30.29 in1.5 miNNW (330°)5.8 mph0.01 inSnowLight Snow
2:45 AM12.2 °F8.6 °F85 %30.30 in3.0 miNNW (330°)5.8 mph0.01 inSnowLight Snow
2:55 AM12.0 °F9.0 °F88 %30.35 in7.0 miNorth (360°)5.8 mph0.01 inSnowLight Snow
3:03 AM12.2 °F8.6 °F85 %30.31 in9.0 miNorth (10°)8.1 mph0.00 inScattered Clouds
3:55 AM12.9 °F7.0 °F77 %30.39 in10.0 miNNE (30°)8.1 mph0.00 inClear
4:55 AM10.9 °F3.9 °F73 %30.45 in10.0 miNNE (30°)6.9 mphClear
5:55 AM9.0 °F1.9 °F73 %30.49 in10.0 miNNE (20°)3.5 mphClear
6:55 AM8.1 °F1.9 °F76 %30.53 in10.0 miNNE (30°)3.5 mphClear
7:55 AM6.1 °F1.0 °F80 %30.57 in10.0 miCalmClear
8:55 AM7.0 °F1.0 °F77 %30.60 in10.0 miNE (40°)3.5 mphClear
9:55 AM8.1 °F0.0 °F70 %30.64 in10.0 miENE (60°)6.9 mphClear
10:55 AM10.9 °F1.9 °F67 %30.66 in10.0 miENE (70°)6.9 mphClear
11:55 AM12.9 °F1.9 °F62 %30.65 in10.0 miEast (90°)5.8 mphClear
12:55 PM14.0 °F1.0 °F56 %30.63 in10.0 miESE (110°)6.9 mphClear
1:55 PM15.1 °F1.0 °F54 %30.62 in10.0 miSE (140°)3.5 mphClear
2:55 PM16.0 °F1.0 °F52 %30.61 in10.0 miSSE (150°)3.5 mphClear
3:55 PM16.0 °F1.0 °F52 %30.61 in10.0 miSSE (150°)3.5 mphClear
4:55 PM14.0 °F1.9 °F59 %30.61 in10.0 miSE (130°)4.6 mphClear
5:55 PM14.0 °F1.9 °F59 %30.60 in10.0 miSSE (150°)3.5 mphClear
6:55 PM12.0 °F3.0 °F67 %30.58 in10.0 miSE (140°)3.5 mphClear
7:55 PM12.9 °F3.9 °F67 %30.56 in10.0 miSE (140°)5.8 mphClear
8:55 PM12.9 °F3.9 °F67 %30.53 in10.0 miSE (130°)6.9 mphClear
9:55 PM14.0 °F3.0 °F62 %30.52 in10.0 miSE (140°)6.9 mphMostly Cloudy
10:55 PM14.0 °F3.9 °F64 %30.51 in10.0 miSE (130°)9.2 mphMostly Cloudy
11:55 PM14.0 °F3.0 °F62 %30.48 in10.0 miSE (140°)6.9 mphOvercast
Hourly data recorded from KMKG, located miles away from Muskegon, Michigan







STORIES FROM OUR PARTNERS